Regional Weather Roundup
Issued by NWS

Home | Current Version | Previous Version | Graphics & Text | Print | Product List | Glossary On
Versions: 1 2 3 4 5 6 7 8 9 10 11 12 13 14 15 16 17 18 19 20 21 22 23 24 25 26 27 28 29 30 31 32 33 34 35 36 37 38 39 40 41 42 43 44 45 46 47 48 49 50
000
ASUS43 KMKX 271911
RWRWI

WISCONSIN REGIONAL WEATHER ROUNDUP
NATIONAL WEATHER SERVICE MILWAUKEE/SULLIVAN WI
200 PM CDT THU JUL 27 2017

NOTE: "FAIR" INDICATES FEW OR NO CLOUDS BELOW 12,000 FEET WITH NO
SIGNIFICANT WEATHER AND/OR OBSTRUCTIONS TO VISIBILITY.

WIZ001-002-006>008-014>016-023>028-272000-
NORTHWEST WISCONSIN

CITY           SKY/WX    TMP DP  RH WIND       PRES   REMARKS
SUPERIOR ARPT  NOT AVBL
ASHLAND        MOSUNNY   79  60  52 NE9       30.09S HX  80
HAYWARD        MOSUNNY   81  56  42 N8        30.09S HX  81
SIREN          MOSUNNY   80  57  45 N5        30.09S HX  80
CUMBERLAND     PTSUNNY   75  57  53 N6        30.09S
RICE LAKE      MOSUNNY   81  55  40 NE7       30.09S HX  81
CHETEK         MOSUNNY   81  60  48 E3        30.07S HX  82
LADYSMITH      PTSUNNY   81  56  42 NW6       30.09S HX  81
EAU CLAIRE     MOSUNNY   83  59  44 N8        30.05S HX  83
MENOMONIE      MOSUNNY   80  58  46 N6        30.06S HX  80
NEW RICHMOND   PTSUNNY   78  59  52 N5        30.08F
OSCEOLA        SUNNY     82  58  43 NW5       30.11S HX  81
$$

WIZ003>005-009-010-017-018-272000-
NORTH CENTRAL WISCONSIN

CITY           SKY/WX    TMP DP  RH WIND       PRES   REMARKS
MANITOWISH WTR MOSUNNY   79  54  42 E6        30.08F
ARBOR VITAE    MOSUNNY   77  56  47 NE5       30.07F
WOODRUFF       MOSUNNY   77  56  47 NE5       30.07F
RHINELANDER    PTSUNNY   79  55  43 CALM      30.08F
EAGLE RIVER    CLOUDY    75  54  47 N6        30.08S
LAND O LAKES   CLOUDY    78  53  41 NE6       30.10S
PHILLIPS       PTSUNNY   79  55  43 N6        30.08S
TOMAHAWK         N/A     76  56  50 CALM      30.07F
MEDFORD        SUNNY     79  58  48 NE6       30.06F HX  80
MERRILL        MOSUNNY   81  57  44 NE6       30.06F HX  81
$$

WIZ029-030-035-036-043>047-272000-
CENTRAL WISCONSIN

CITY           SKY/WX    TMP DP  RH WIND       PRES   REMARKS
WAUSAU         MOSUNNY   80  58  46 NE7       30.04S HX  80
MOSINEE        MOSUNNY   79  59  50 E7        30.06F HX  80
MARSHFIELD     PTSUNNY   79  59  50 E7        30.05S HX  80
STEVENS POINT  PTSUNNY   78  58  50 E7        30.05S
WAUPACA        MOSUNNY   84  59  42 E10G16    30.03S HX  84
WAUTOMA        NOT AVBL
WISC RAPIDS    PTSUNNY   84  61  45 VRB3      30.05R HX  84
CAMP DOUGLAS   MOSUNNY   82  61  47 NE8       30.02F HX  83
$$

WIZ011>013-019>022-031-037>040-048>050-272000-
NORTHEAST WISCONSIN

CITY           SKY/WX    TMP DP  RH WIND       PRES   REMARKS
ANTIGO         MOSUNNY   74  58  57 E5        30.07S
SHAWANO        SUNNY     82  59  45 E8        30.03F HX  82
OCONTO         SUNNY     77  59  53 E8        30.02F
STURGEON BAY     N/A     74  61  63 MISG      30.04F
GREEN BAY      SUNNY     79  60  52 NE14      30.03S HX  80
MANITOWOC      SUNNY     76  58  53 N12G17    30.02F
APPLETON       MOSUNNY   79  52  38 NE13      30.02F
CLINTONVILLE   MOSUNNY  N/A N/A N/A NE8       30.03F
OSHKOSH        SUNNY     79  63  57 NE13      30.01F HX  80
$$

WIZ032>034-041-042-053>061-272000-
SOUTHWEST WISCONSIN

CITY           SKY/WX    TMP DP  RH WIND       PRES   REMARKS
LA CROSSE      SUNNY     87  62  43 N10       30.02S HX  87
SPARTA         PTSUNNY   82  58  45 NE3       30.03F HX  82
VIROQUA        SUNNY     80  63  55 NE9       30.05S HX  81
BOSCOBEL       MOSUNNY   84  59  42 N8        30.01S HX  84
PRAIRIE DU CHI SUNNY     82  56  41 N12       30.01S HX  81
PLATTEVILLE    MOSUNNY   81  64  55 NE9       30.01S HX  82
$$

WIZ056-057-062-063-064-067-068-272000-
SOUTH CENTRAL WISCONSIN

CITY           SKY/WX    TMP DP  RH WIND       PRES   REMARKS
REEDSBURG      MOSUNNY   80  61  52 NE9       30.02S HX  81
BARABOO/DELLS  MOSUNNY   81  56  42 CALM      30.03R HX  81
LONE ROCK      SUNNY     83  63  50 N12       30.00F HX  84
MINERAL POINT  MOSUNNY   81  64  57 N9        30.02S HX  82
MADISON        MOSUNNY   82  63  52 NE12      30.00S HX  83
MIDDLETON      SUNNY     82  61  49 NE5       30.01F HX  82
WATERTOWN      MOSUNNY   80  64  56 N9G17     29.99S HX  82
MONROE         SUNNY     79  63  57 N13G18    30.00S HX  80
JANESVILLE     MOSUNNY   82  61  47 E12G17    29.98S HX  83
$$

WIZ051-052-058>065-066-070>072-272000-
SOUTHEAST WISCONSIN

CITY           SKY/WX    TMP DP  RH WIND       PRES   REMARKS
MILWAUKEE      MOSUNNY   76  61  59 N14G25    29.99S
WAUKESHA       MOSUNNY   79  57  47 NE17      30.00F HX  80
MILWAUKEE/TIMM SUNNY     77  54  44 NE17G23   30.00F
RACINE         SUNNY     75  65  70 N15       29.99F
KENOSHA        SUNNY     79  61  53 NE14G21   29.98S HX  80
FOND DU LAC    MOSUNNY   80  61  52 N14       30.01F HX  81
SHEBOYGAN      SUNNY     78  61  55 NE18      30.01F HX  80
WEST BEND      SUNNY     77  55  47 NE14G21   30.00F
JUNEAU         MOSUNNY   79  62  56 N12G17    30.02S HX  80
$$

LSZ147-162-272000-
LAKE SUPERIOR

STATION/POSITION TIME  TEMP    WIND        PRES    WAVE
                       AIR SEA DIR/SP/G            HT/PER
                 (UTC) (F)     (DEG/KT/KT) (MB)    (FT/S)
W MID LAKE BUOY  1850   56 53   40/  8/  8 1019.3F   0
DEVILS ISLAND    1800   61      40/  5/  6 1019.5S
PORT WING        1702   69      20/ 11/ 12 1019.3
SAXON HARBOR     1840   68      40/  7/  8 1018.6S
$$

LMZ867-665-643>646-272000-
LAKE MICHIGAN

STATION/POSITION TIME  TEMP    WIND        PRES    WAVE
                       AIR SEA DIR/SP/G            HT/PER
                 (UTC) (F)     (DEG/KT/KT) (MB)    (FT/S)
CHAMBERS ISLAND  1840   72      40/  5/  8 1016.3F
S GREEN BAY BUOY 1800   71 72   20/ 10/ 12 1017.1
N MID LAKE BUOY  1850   67 68   CALM  /  2 1017.3F   1/ 3
NORTHPORT PIER   1840   72     310/  7/  8 1016.6F
KEWAUNEE LAKESHO 1848   72      30/  4/  9 1016.2F
SHEBOYGAN LAKESH 1900   69      10/ 15/ 16 1015.8F
PORT WASHINGTON  1840   77      40/ 13/ 19 1016.6S
ATWATER BUOY     1709   69 69   10/ 14/ 16 1015.8F
MILWAUKEE LAKESH 1850   71      10/ 16/ 20   N/A
S MID LAKE BUOY  1850   70 71   10/ 14/ 17 1014.0F   1/ 3
KENOSHA   LAKESH 1900   70      30/ 17/ 20 1014.6
$$

TC  - TEMPERATURE IN CELSIUS
VSB - VISIBILITY IN STATUTE MILES
WCI - WIND CHILL INDEX
HX  - HEAT INDEX





USA.gov is the U.S. government's official web portal to all federal, state and local government web resources and services.